GFSCGP_sfc_dewp_021.txt.gz
Dewpoint
23 23 24 19 21 26 24 25 26 27 26 24 30 30 33 33 33 32 33 35 36 40 46 48 51 53 51 51 51 54 56 58 59 60 60 59 59 60 61 61 61 61 61 61
14 14 16 25 23 26 24 22 23 25 27 30 30 30 34 34 32 32 33 34 36 44 44 47 52 52 51 51 51 55 55 58 61 61 61 61 61 61 60 61 61 61 61 61
12 12 14 24 23 24 26 23 23 25 27 28 28 30 32 33 33 32 33 32 41 42 45 47 50 52 52 53 52 54 57 58 61 60 61 61 61 60 60 61 60 61 61 61
12 12 17 24 24 25 24 26 25 26 26 26 30 25 30 29 30 30 29 29 40 42 45 48 50 52 51 52 50 56 58 59 60 59 59 57 57 57 59 61 59 60 61 61
14 11 13 18 22 24 25 27 26 26 26 27 26 24 26 29 29 28 27 29 42 43 45 48 50 52 53 52 54 57 57 58 59 60 59 59 57 60 59 59 58 59 60 61
16 16 14 16 16 22 25 25 25 25 25 25 26 26 25 28 28 32 35 41 42 44 46 48 51 52 52 52 53 57 57 56 58 59 59 59 58 58 57 59 58 59 60 60
16 14 14 14 11 12 23 22 22 25 24 25 25 24 26 29 28 28 34 41 43 44 45 48 50 51 49 50 53 55 56 55 56 57 60 60 59 58 57 57 59 59 59 60
17 13 13 12 11 12 13 21 21 22 25 23 25 25 28 31 30 30 40 41 43 44 45 47 49 50 48 50 53 53 56 54 56 58 60 61 59 59 59 60 60 60 60 60
17 15 15 11 12 13 19 22 23 25 27 23 25 31 32 31 28 32 41 43 43 44 45 46 49 48 48 50 52 51 55 53 56 57 59 60 60 59 59 59 60 60 60 62
22 19 17 12 11 14 15 24 23 27 22 22 23 26 31 29 25 32 41 44 45 45 46 46 48 47 49 50 50 53 54 53 56 57 57 60 60 61 60 59 59 59 60 60
20 26 23 15 13 10 14 18 25 24 24 23 22 25 31 28 28 39 42 44 44 44 44 46 47 47 49 50 50 53 51 53 54 55 54 59 60 59 60 60 61 61 60 61
19 27 22 24 15 13 16 18 28 23 27 24 25 27 30 32 40 40 42 43 43 43 44 45 46 45 48 49 50 52 51 53 53 54 53 57 58 59 60 60 60 60 61 61
20 20 25 24 22 18 13 23 25 30 30 27 24 26 34 32 34 41 41 41 41 42 42 44 45 43 46 49 50 52 52 50 52 54 52 56 58 59 59 60 62 60 60 61
33 20 18 23 23 21 14 25 24 29 27 26 26 27 32 31 29 35 41 40 40 40 41 43 44 41 44 46 49 51 51 49 50 53 52 53 58 58 58 60 61 62 61 61
34 18 23 20 24 25 19 24 24 23 28 25 26 29 31 31 30 33 40 40 40 39 41 43 43 41 43 44 48 50 50 47 47 53 53 53 57 57 59 57 60 61 60 58
34 24 20 21 23 21 20 22 24 24 25 28 25 24 32 34 31 33 40 39 39 39 40 43 44 41 43 44 47 49 50 46 45 52 53 54 55 56 58 58 57 60 60 56
32 38 23 19 19 21 20 23 23 24 26 24 23 25 30 32 32 34 37 39 39 38 39 42 44 42 41 44 45 49 50 46 44 51 53 53 53 54 57 57 57 57 56 55
32 33 34 21 20 18 25 28 26 26 26 27 26 27 30 31 34 35 36 39 39 39 39 42 43 43 43 46 46 49 49 45 44 47 49 52 52 54 56 56 57 57 58 57
33 34 36 25 22 23 26 30 26 27 27 27 27 28 27 29 32 31 30 42 42 41 41 42 44 47 45 45 48 48 48 44 43 45 46 49 49 52 53 55 57 57 57 57
33 37 37 32 24 18 23 28 30 31 25 32 31 30 28 31 28 30 35 41 43 44 44 42 46 46 44 45 48 46 48 44 43 44 44 46 47 52 52 56 58 57 58 56
33 35 32 32 29 24 26 31 30 23 26 34 31 33 33 30 33 34 39 37 44 45 45 45 47 45 44 45 47 45 48 45 44 44 45 43 46 51 53 58 58 58 58 57
35 33 32 30 31 24 30 30 26 30 35 38 36 37 37 37 39 39 38 42 44 45 46 45 46 46 47 45 46 46 47 47 45 44 45 43 47 49 55 57 58 58 58 57
37 38 37 38 34 37 38 35 36 42 32 36 36 41 40 40 37 37 34 42 43 44 46 46 46 49 47 46 45 46 47 48 46 45 46 47 46 48 56 57 58 57 57 57
38 40 41 40 41 38 39 39 39 41 36 38 37 42 39 38 37 35 38 42 44 44 46 46 48 48 47 46 45 46 50 49 46 46 49 48 44 51 54 57 57 56 56 55
38 39 39 42 41 39 40 40 43 44 41 37 37 40 39 38 38 36 38 43 43 43 47 48 49 49 48 47 47 48 49 48 46 48 50 46 46 51 52 54 56 55 55 53
41 39 39 41 42 38 39 37 43 46 47 48 46 40 42 39 39 37 37 42 43 46 48 48 50 50 50 48 48 48 48 47 48 49 50 47 46 52 51 52 53 41 44 45

GFSCGP_sfc_dewp_024.txt.gz
Dewpoint
22 29 24 31 28 24 27 25 24 25 26 28 27 27 29 32 30 29 30 33 36 39 47 50 50 49 50 51 53 54 56 57 59 59 59 58 58 59 59 60 60 60 60 60
20 15 19 19 21 22 22 25 25 25 25 26 26 27 28 33 34 33 34 34 36 45 47 50 51 49 50 50 53 55 56 57 60 59 60 60 59 60 59 59 60 60 61 60
15 17 17 17 24 21 20 22 26 25 25 26 28 29 31 33 35 33 33 34 42 43 46 49 49 49 49 50 53 55 57 58 60 59 59 58 58 58 58 59 58 59 61 60
15 15 18 19 16 23 22 23 25 27 26 24 29 25 28 30 28 29 30 35 42 42 45 49 49 49 50 51 52 57 57 59 59 59 58 55 55 55 57 58 57 59 60 60
15 13 14 12 12 14 23 25 26 28 27 26 25 25 26 29 26 28 27 36 41 42 46 49 49 49 51 49 55 57 57 58 59 58 58 57 56 57 57 57 57 58 59 60
15 16 13 13 14 14 24 26 27 27 26 24 25 25 24 26 27 29 35 36 43 45 47 50 50 51 51 51 55 57 56 57 58 58 57 57 56 56 56 57 57 58 58 59
16 16 15 13 12 17 23 23 23 22 24 24 26 27 26 30 31 28 37 42 44 46 48 49 50 51 50 52 55 57 55 55 56 59 58 57 57 56 56 57 58 58 58 59
14 15 16 16 14 11 14 20 23 20 23 23 26 24 25 29 31 33 40 42 44 46 47 49 50 50 49 51 54 56 54 54 57 58 58 58 58 58 58 58 58 58 59 59
14 15 20 16 15 14 13 13 17 22 27 23 24 26 31 33 39 39 41 43 44 45 47 49 50 48 47 52 53 55 55 53 57 58 59 58 58 57 57 57 58 58 59 61
21 18 18 17 15 15 13 20 19 25 20 20 25 26 27 28 37 40 41 42 44 45 47 48 49 47 48 52 51 54 55 55 56 56 59 58 59 59 58 58 58 59 59 59
20 23 25 17 14 12 13 10 17 22 24 22 21 23 30 26 31 41 40 42 44 44 46 48 47 47 48 50 49 52 53 54 55 56 57 58 59 59 59 60 60 59 59 59
20 20 18 19 18 14 11 14 13 20 23 24 24 23 31 33 35 40 42 43 43 44 45 47 46 47 48 48 50 51 52 53 54 53 57 57 58 59 59 59 59 59 59 60
33 19 20 21 21 22 11 12 17 25 29 25 21 23 30 35 37 40 42 43 43 44 45 46 45 47 47 48 50 50 52 52 53 53 55 57 58 59 59 59 59 60 60 59
35 29 17 16 20 21 18 12 20 24 26 26 22 25 31 35 40 41 42 42 42 43 44 45 44 46 47 48 49 51 51 52 53 51 53 57 57 58 58 59 58 59 60 60
30 30 20 16 20 24 21 14 17 25 25 23 25 25 30 32 39 41 41 41 41 41 43 44 42 44 46 48 49 50 51 50 53 51 51 57 57 57 57 60 59 60 59 60
31 30 28 18 16 16 17 22 14 22 26 26 27 28 32 30 37 40 40 40 39 40 42 44 43 42 43 48 48 49 50 48 52 52 51 56 56 56 57 58 59 59 56 59
30 32 31 18 18 16 15 17 23 24 25 27 24 25 30 32 31 39 39 39 39 39 41 43 43 41 42 45 48 49 50 46 52 52 52 55 55 55 58 56 58 55 55 55
29 29 29 26 21 18 21 24 23 26 26 28 26 27 31 33 33 36 40 39 39 39 41 42 43 41 43 44 47 49 48 44 51 52 52 52 53 55 56 56 56 56 54 54
29 29 30 28 20 21 20 26 23 26 26 28 25 26 28 31 34 34 40 40 40 40 41 42 44 42 43 44 46 48 45 43 49 50 51 51 52 55 55 56 56 56 54 53
29 30 35 34 22 17 21 28 28 29 25 31 29 28 26 31 28 31 38 40 40 40 41 43 44 42 43 44 47 48 43 42 46 48 49 50 51 53 54 56 56 56 55 53
33 32 31 31 31 26 26 25 34 25 26 33 30 30 29 27 29 31 36 41 41 41 41 43 45 43 43 44 47 46 43 41 43 46 47 48 50 52 53 56 56 56 56 55
35 36 34 33 29 22 38 32 26 32 32 34 32 32 32 31 33 33 37 42 42 41 42 44 45 43 43 45 46 47 43 42 42 45 44 46 49 50 53 56 56 56 56 55
34 36 36 37 37 40 40 37 39 43 37 36 32 36 32 33 36 36 38 42 43 43 43 44 45 44 44 45 44 46 46 44 43 44 43 43 48 49 55 56 56 55 56 55
38 39 37 37 41 37 38 36 37 42 46 47 37 38 36 33 36 35 39 43 43 44 44 45 45 44 44 44 44 44 48 46 43 44 44 43 47 50 55 56 56 56 55 55
38 40 37 38 39 38 38 37 36 35 43 48 48 41 37 35 35 34 37 43 43 45 44 45 46 45 44 44 44 45 48 47 45 44 46 44 44 50 54 55 56 55 56 55
42 38 37 37 40 39 39 37 38 37 36 46 50 48 48 45 35 34 37 43 43 45 45 46 47 46 45 44 44 47 47 47 46 47 47 44 44 48 52 54 52 41 48 46

GFSCGP_sfc_dewp_030.txt.gz
Dewpoint
19 19 25 20 20 16 12 16 18 16 25 25 24 27 28 30 31 31 32 34 35 36 40 42 47 50 52 53 54 55 56 57 58 58 58 58 58 58 59 59 59 60 60 61
18 15 18 24 23 22 22 18 19 22 27 26 27 27 28 28 29 29 30 32 35 37 46 48 48 50 52 53 54 56 56 56 58 58 58 59 58 58 59 59 60 59 60 61
7 9 16 25 25 27 26 24 21 21 27 27 27 24 25 28 29 31 34 36 37 36 44 47 48 50 52 53 54 56 56 57 59 58 58 57 57 57 57 58 59 58 60 60
8 8 13 20 24 27 23 28 27 28 25 21 27 24 24 28 30 31 30 31 34 42 48 47 48 50 51 52 55 56 57 58 58 58 57 55 55 55 56 57 58 58 60 60
11 7 8 14 21 28 22 25 29 27 23 22 23 25 25 29 27 28 30 30 32 43 48 47 47 49 50 53 54 56 57 58 58 58 57 57 56 56 57 57 58 58 59 60
13 17 7 10 16 24 22 22 24 26 25 22 22 25 25 27 27 28 30 32 41 47 47 47 48 49 50 53 56 57 57 57 58 57 57 56 56 56 56 57 58 58 58 60
17 13 15 14 16 19 19 19 16 17 20 21 24 25 23 29 31 30 29 31 43 48 47 47 47 48 50 54 56 56 56 56 57 57 57 56 56 56 57 58 58 58 59 59
18 15 15 17 13 17 16 17 17 13 19 22 25 25 27 30 29 32 33 36 45 48 47 47 47 48 50 54 56 56 56 55 57 57 57 57 57 57 58 58 58 58 59 59
19 18 18 15 14 15 17 16 20 19 25 23 24 26 28 31 31 33 35 43 44 47 48 47 49 48 50 55 55 55 55 55 57 57 57 57 57 57 57 58 59 59 59 61
22 18 18 16 14 14 14 18 16 19 18 20 23 25 23 27 27 36 41 41 45 47 48 48 49 49 51 54 55 55 54 55 57 57 58 58 58 58 58 58 59 59 59 59
27 20 19 17 15 13 12 17 19 16 23 20 19 23 30 28 30 35 39 41 45 47 48 48 49 49 50 52 54 55 54 55 56 57 58 58 59 59 59 59 59 59 59 60
31 26 20 16 18 16 12 12 17 15 18 20 23 22 29 32 31 37 38 42 45 47 48 49 49 48 50 51 52 54 54 54 56 56 58 58 58 58 58 59 59 59 59 60
33 29 20 18 18 19 14 14 14 22 22 18 17 19 28 32 32 37 38 42 44 47 48 48 47 47 49 50 51 52 54 54 55 56 57 58 58 58 57 58 59 60 60 60
34 29 29 19 18 19 15 14 13 15 16 20 16 19 24 31 31 36 40 42 44 46 48 48 47 47 48 49 50 52 53 54 54 56 57 57 58 58 58 58 58 60 60 60
32 27 30 29 28 27 20 16 14 13 14 15 21 22 26 29 32 37 42 43 44 45 47 47 47 47 47 49 50 52 53 53 53 55 56 57 57 58 58 58 59 60 61 61
36 26 28 24 26 27 25 20 17 15 14 14 17 19 26 29 37 41 42 42 43 44 46 47 47 47 47 48 49 51 52 52 53 54 56 57 57 58 59 59 59 58 59 61
34 29 25 21 23 26 22 22 20 19 15 16 17 17 30 34 36 40 42 42 42 44 45 46 47 47 47 47 49 50 51 52 53 52 56 57 57 58 58 59 56 57 57 59
31 30 26 22 27 20 23 22 21 20 20 16 17 22 27 30 36 38 41 41 43 43 45 46 46 47 48 48 49 51 51 52 52 51 54 56 56 57 58 58 56 56 55 57
32 34 24 25 28 25 22 32 29 22 19 25 25 23 28 30 38 39 42 42 43 44 45 46 46 46 47 48 49 50 50 52 52 51 52 55 55 57 57 56 55 54 54 55
31 32 28 29 29 20 33 36 38 38 18 36 39 41 30 33 31 34 41 43 43 44 45 45 46 45 47 48 50 50 49 51 51 51 52 54 55 56 57 56 54 54 54 54
32 33 28 27 26 30 38 38 36 20 26 37 37 40 43 32 33 35 41 43 43 43 44 46 46 44 46 49 50 49 49 50 51 52 52 53 55 56 57 56 55 54 54 53
32 32 28 28 28 28 39 37 33 35 38 38 38 37 41 41 34 36 40 43 43 43 44 45 45 45 46 49 49 49 48 49 51 51 51 52 54 56 56 56 55 54 53 52
32 35 34 35 36 39 40 39 39 38 37 37 37 38 39 47 40 35 38 42 43 43 43 44 45 45 46 48 48 48 49 48 50 51 51 51 53 55 56 56 55 53 53 51
37 39 36 36 39 39 39 39 38 37 38 37 36 38 44 48 41 33 37 41 42 42 43 44 44 43 45 47 48 48 48 47 49 50 50 50 51 52 56 56 56 54 53 52
36 39 37 36 39 38 37 38 39 40 39 36 36 38 48 50 37 34 36 41 42 42 43 44 44 44 45 46 47 48 46 47 48 48 49 49 50 52 54 56 55 55 56 53
39 36 36 35 38 39 38 39 40 40 37 37 37 38 40 48 50 37 36 40 43 42 43 44 45 45 45 46 46 47 45 46 47 47 47 47 49 51 52 54 53 42 48 47

GFSCGP_sfc_dewp_033.txt.gz
Dewpoint
18 15 20 19 24 22 23 22 20 18 17 20 22 25 26 28 30 31 33 35 39 41 43 43 47 51 54 57 59 61 60 62 61 61 61 62 60 61 62 63 64 63 63 63
16 14 17 19 19 19 17 15 16 18 18 23 24 25 28 29 27 30 32 34 37 39 42 47 49 52 55 57 59 60 61 62 62 62 63 63 63 62 63 63 64 63 62 63
13 12 13 18 21 19 18 17 16 17 25 27 27 24 23 25 29 27 33 37 39 41 43 49 50 53 55 57 58 60 61 62 62 64 63 63 62 62 61 61 61 62 62 62
12 11 10 14 17 21 20 20 17 20 22 19 26 21 25 23 24 30 35 37 38 39 47 49 51 53 55 56 58 60 61 62 63 63 63 63 61 60 61 61 62 62 62 62
14 11 10 13 15 20 19 22 24 24 25 26 22 21 21 29 24 24 28 35 38 44 48 49 50 53 54 56 57 59 61 63 63 63 63 62 61 61 61 62 62 63 64 63
15 13 11 10 15 20 23 23 28 28 25 22 22 19 19 19 23 25 28 33 41 47 48 49 51 53 54 55 57 59 62 63 63 62 63 62 61 61 60 61 62 62 62 63
17 14 13 10 12 20 25 24 20 20 20 20 22 22 22 25 28 31 31 34 42 48 48 49 51 51 53 55 57 59 61 62 62 62 61 60 61 61 61 61 61 61 61 62
19 16 15 11 11 16 22 23 17 18 18 16 23 18 19 28 28 31 33 36 44 48 48 48 50 51 52 55 57 58 60 61 61 61 61 61 61 60 61 62 62 62 62 63
21 18 18 13 14 14 20 19 19 18 24 16 18 27 31 33 34 35 33 38 44 49 49 48 50 51 53 55 58 59 59 60 60 61 61 61 61 61 61 62 64 63 64 63
27 21 19 15 12 17 21 22 18 17 13 13 20 24 19 30 32 34 36 41 46 49 49 48 49 51 53 56 58 59 59 59 60 61 61 60 62 62 61 62 62 63 64 63
30 27 21 17 14 13 15 18 18 18 17 10 10 16 35 32 36 35 38 43 46 48 48 48 49 51 53 56 55 58 58 58 59 60 61 61 62 61 61 62 62 63 64 63
33 33 22 18 17 16 16 18 20 13 20 16 16 14 32 37 36 38 40 44 46 48 48 48 49 50 52 55 55 57 58 57 58 59 60 61 61 60 61 62 62 62 62 62
38 30 21 21 20 20 18 16 20 23 26 19 12 17 28 33 34 37 41 44 47 48 49 48 49 50 50 53 53 55 57 57 57 58 59 61 61 60 61 62 62 62 62 62
38 34 28 18 20 23 18 16 17 21 17 16 14 14 21 28 29 34 41 45 46 48 49 49 49 49 50 52 52 53 55 56 57 57 59 60 61 60 61 62 62 62 62 62
37 30 28 27 26 27 27 17 15 17 19 15 19 19 19 26 26 34 42 45 46 47 48 49 49 50 51 52 52 52 54 56 57 57 58 60 61 61 60 61 62 63 63 62
37 31 29 25 24 24 25 25 18 15 16 17 20 21 25 26 33 38 42 44 44 46 47 48 49 50 51 51 51 53 54 55 56 56 57 59 59 59 61 61 61 62 62 62
32 31 29 23 23 24 21 23 24 20 18 17 15 20 22 26 29 33 43 44 44 46 47 48 49 50 51 52 52 53 54 55 55 55 57 58 59 59 60 60 59 61 62 62
32 31 30 23 26 19 22 32 25 24 22 21 20 21 21 22 26 31 38 43 45 46 47 49 50 51 52 52 52 53 53 54 54 54 55 57 57 59 60 58 60 61 62 62
35 34 28 23 26 26 28 36 36 26 30 37 37 30 26 30 32 32 37 43 46 48 49 50 51 52 53 52 52 52 52 53 53 52 53 55 57 59 59 57 59 59 61 61
33 34 31 29 25 19 36 37 37 37 28 38 39 39 40 43 22 21 33 43 46 48 49 50 51 52 53 53 53 52 51 52 52 52 52 55 56 58 59 59 59 59 60 60
33 35 30 28 28 29 38 37 37 31 31 39 39 40 41 40 37 44 47 45 46 48 49 51 51 51 53 53 53 52 51 52 52 52 52 54 57 59 60 61 59 59 59 59
34 31 28 30 27 27 39 36 33 37 40 39 39 40 40 42 43 44 46 46 47 47 48 49 49 50 53 53 53 51 52 52 52 52 52 54 57 57 58 60 58 58 59 58
32 35 36 35 34 40 40 40 41 39 39 39 40 39 40 42 46 48 49 46 46 47 47 47 48 50 52 52 53 52 53 52 52 53 53 54 56 57 59 60 58 55 57 54
36 39 36 37 39 39 39 38 39 39 40 39 39 40 41 42 44 49 51 48 43 46 47 48 48 49 50 52 52 54 52 51 51 53 54 55 55 56 59 57 56 54 54 52
37 38 38 36 38 39 39 38 37 39 39 39 39 40 41 42 43 47 49 44 40 45 46 48 48 49 49 51 51 52 51 50 53 54 54 54 53 55 57 58 57 55 56 53
39 38 36 35 37 38 38 38 40 39 39 40 39 39 42 43 45 47 50 40 41 44 46 47 49 49 48 49 50 51 50 51 55 54 53 52 51 52 53 55 56 43 48 47